Date String (YYYY-MM-DD hh:mm:ss) UTC,Instrument flags,Ambient pressure (hPa),Sample flow (lpm),Bypass flow (lpm),Sample temperature (°C),Ambient temperature (°C),ASC tube jacket temperature (°C),LED temperature (°C),Box temperature (°C),Sample RH (%),Span deviation,Mass concentration (μg/m³),Mass concentration (μg/m³),Mass concentration (μg/m³)
DateTimeUTC,F1_M11,P_M11,Q1_M11,Q2_M11,T1_M11,T2_M11,T3_M11,T4_M11,T5_M11,U1_M11,ZSPAN_M11,X2_M11,X0_M11,X1_M11
2022-10-17 16:00:00,,0833.9,4.98,0.00,25.2,24.1,00.0,33.9,27.1,13.8,0000.0,0004.97,0009.57,0004.39
2022-10-17 16:01:00,,0833.9,5.02,0.00,25.2,24.1,00.0,33.9,27.1,13.7,0000.0,0004.99,0009.97,0004.40
2022-10-17 16:02:00,,0833.9,4.99,0.00,25.2,24.1,00.0,33.9,27.2,13.7,0000.0,0004.98,0009.84,0004.42
2022-10-17 16:03:00,,0834.0,5.01,0.00,25.2,24.2,00.0,34.0,27.2,13.7,0000.0,0004.97,0009.85,0004.42
2022-10-17 16:04:00,,0834.0,4.98,0.00,25.3,24.2,00.0,34.0,27.2,13.7,0000.0,0004.97,0009.62,0004.45
2022-10-17 16:05:00,,0834.0,5.01,0.00,25.3,24.2,00.0,34.0,27.2,13.7,0000.0,0005.01,0009.02,0004.48
2022-10-17 16:06:00,,0834.0,5.00,0.00,25.3,24.2,00.0,34.0,27.3,13.6,0000.0,0005.04,0009.09,0004.50
2022-10-17 16:07:00,,0833.9,4.99,0.00,25.3,24.2,00.0,34.0,27.3,13.7,0000.0,0005.01,0008.88,0004.53
2022-10-17 16:08:00,,0833.9,5.01,0.00,25.3,24.2,00.0,34.0,27.3,14.1,0000.0,0005.04,0008.81,0004.57
2022-10-17 16:09:00,,0833.9,5.01,0.00,25.3,24.2,00.0,34.1,27.3,14.3,0000.0,0005.08,0008.85,0004.62
2022-10-17 16:10:00,,0833.9,4.99,0.00,25.3,24.3,00.0,34.1,27.3,14.6,0000.0,0005.13,0008.88,0004.67
2022-10-17 16:11:00,,0833.9,5.00,0.00,25.4,24.3,00.0,34.1,27.3,14.7,0000.0,0005.13,0009.61,0004.71
2022-10-17 16:12:00,,0833.8,5.01,0.00,25.4,24.3,00.0,34.1,27.3,14.9,0000.0,0005.14,0009.32,0004.75
2022-10-17 16:13:00,,0833.9,4.99,0.00,25.4,24.3,00.0,34.1,27.3,15.0,0000.0,0005.20,0009.43,0004.77
2022-10-17 16:14:00,,0833.8,5.01,0.00,25.4,24.3,00.0,34.1,27.4,14.8,0000.0,0005.25,0009.47,0004.82
2022-10-17 16:15:00,,0833.8,4.98,0.00,25.4,24.3,00.0,34.2,27.4,14.7,0000.0,0005.30,0009.54,0004.86
2022-10-17 16:16:00,,0833.8,5.01,0.00,25.4,24.4,00.0,34.2,27.4,14.9,0000.0,0005.34,0009.66,0004.90
2022-10-17 16:17:00,,0833.8,4.99,0.00,25.5,24.4,00.0,34.2,27.4,15.1,0001.0,0005.35,0009.56,0004.93
2022-10-17 16:18:00,,0833.8,5.02,0.00,25.5,24.4,00.0,34.2,27.4,15.0,0000.6,0005.41,0011.47,0004.97
2022-10-17 16:19:00,,0833.8,5.00,0.00,25.5,24.4,00.0,34.2,27.4,15.2,0000.0,0005.52,0011.91,0005.03
2022-10-17 16:20:00,,0833.9,5.00,0.00,25.5,24.4,00.0,34.2,27.4,15.3,0000.0,0005.58,0011.95,0005.09
2022-10-17 16:21:00,,0833.8,5.01,0.00,25.5,24.4,00.0,34.2,27.5,15.3,0000.0,0005.63,0011.97,0005.13
2022-10-17 16:22:00,,0833.9,4.98,0.00,25.5,24.5,00.0,34.3,27.5,15.5,0000.0,0005.68,0011.32,0005.18
2022-10-17 16:23:00,,0833.8,5.01,0.00,25.5,24.5,00.0,34.3,27.5,15.5,0000.0,0005.75,0011.14,0005.22
2022-10-17 16:24:00,,0833.9,5.01,0.00,25.6,24.5,00.0,34.3,27.5,14.9,0000.0,0005.82,0011.24,0005.28
2022-10-17 16:25:00,,0833.9,4.99,0.00,25.6,24.5,00.0,34.3,27.5,15.0,0000.0,0005.86,0011.26,0005.32
2022-10-17 16:26:00,,0833.8,4.99,0.00,25.6,24.5,00.0,34.3,27.6,15.1,0000.0,0005.90,0011.64,0005.36
2022-10-17 16:27:00,,0833.8,5.00,0.00,25.6,24.6,00.0,34.3,27.6,14.8,0000.0,0005.91,0012.13,0005.39
2022-10-17 16:28:00,,0833.9,5.00,0.00,25.6,24.6,00.0,34.4,27.6,14.2,0000.0,0005.93,0012.06,0005.41
2022-10-17 16:29:00,,0833.8,5.01,0.00,25.7,24.6,00.0,34.4,27.6,14.7,0000.0,0005.96,0010.36,0005.45
2022-10-17 16:30:00,,0833.8,5.00,0.00,25.7,24.6,00.0,34.4,27.6,15.0,0000.0,0005.99,0010.25,0005.49
2022-10-17 16:31:00,,0833.8,5.00,0.00,25.7,24.6,00.0,34.4,27.6,14.6,0000.0,0006.01,0010.52,0005.51
2022-10-17 16:32:00,,0833.8,5.00,0.00,25.7,24.6,00.0,34.4,27.7,15.0,0000.0,0006.05,0010.65,0005.53
2022-10-17 16:33:00,,0833.8,5.00,0.00,25.7,24.6,00.0,34.4,27.7,14.6,0000.0,0006.05,0010.67,0005.54
2022-10-17 16:34:00,,0833.8,5.00,0.00,25.7,24.6,00.0,34.4,27.7,14.3,0000.0,0006.03,0010.51,0005.54
2022-10-17 16:35:00,,0833.7,5.01,0.00,25.7,24.6,00.0,34.5,27.7,14.4,0000.0,0006.04,0010.54,0005.54
2022-10-17 16:36:00,,0833.7,5.00,0.00,25.8,24.6,00.0,34.5,27.7,14.6,0000.0,0006.03,0010.51,0005.55
2022-10-17 16:37:00,,0833.7,4.99,0.00,25.8,24.7,00.0,34.5,27.7,14.5,0000.0,0006.02,0010.34,0005.56
2022-10-17 16:38:00,,0833.7,5.00,0.00,25.8,24.7,00.0,34.5,27.7,14.7,0000.0,0006.06,0010.07,0005.58
2022-10-17 16:39:00,,0833.7,5.01,0.00,25.8,24.7,00.0,34.5,27.8,14.5,0000.0,0006.10,0010.23,0005.61
2022-10-17 16:40:00,,0833.7,5.00,0.00,25.8,24.7,00.0,34.5,27.8,14.8,0000.0,0006.16,0010.32,0005.65
2022-10-17 16:41:00,,0833.7,4.99,0.00,25.8,24.7,00.0,34.5,27.8,15.1,0000.0,0006.18,0010.21,0005.66
2022-10-17 16:42:00,,0833.7,5.00,0.00,25.8,24.8,00.0,34.6,27.8,15.0,0000.0,0006.19,0009.88,0005.68
2022-10-17 16:43:00,,0833.7,5.01,0.00,25.8,24.8,00.0,34.6,27.8,15.1,0000.0,0006.22,0009.81,0005.70
2022-10-17 16:44:00,,0833.7,4.99,0.00,25.9,24.8,00.0,34.6,27.8,15.0,0000.0,0006.29,0009.87,0005.74
2022-10-17 16:45:00,,0833.7,5.01,0.00,25.9,24.8,00.0,34.6,27.8,15.1,0000.0,0006.35,0009.96,0005.78
2022-10-17 16:46:00,,0833.7,5.00,0.00,25.9,24.8,00.0,34.6,27.8,15.4,0002.3,0006.40,0009.98,0005.82
2022-10-17 16:47:00,,0833.7,4.99,0.00,25.9,24.8,00.0,34.6,27.9,14.9,0002.5,0006.43,0010.02,0005.85
2022-10-17 16:48:00,,0833.7,5.00,0.00,25.9,24.8,00.0,34.6,27.9,14.5,0002.5,0006.44,0010.00,0005.85
2022-10-17 16:49:00,,0833.7,5.01,0.00,26.0,24.9,00.0,34.7,27.9,14.5,0002.8,0006.45,0009.93,0005.86
2022-10-17 16:50:00,,0833.6,5.00,0.00,26.0,24.9,00.0,34.7,27.9,14.4,0003.1,0006.49,0010.21,0005.87
2022-10-17 16:51:00,,0833.6,4.99,0.00,26.0,24.9,00.0,34.7,27.9,14.7,0003.2,0006.48,0010.31,0005.86
2022-10-17 16:52:00,,0833.6,5.00,0.00,26.0,24.9,00.0,34.7,28.0,14.8,0002.4,0006.43,0010.71,0005.83
2022-10-17 16:53:00,,0833.6,5.01,0.00,26.0,24.9,00.0,34.7,28.0,14.9,0002.5,0006.44,0010.75,0005.81
2022-10-17 16:54:00,,0833.6,5.01,0.00,26.0,24.9,00.0,34.7,28.0,14.5,0000.7,0006.39,0010.80,0005.77
2022-10-17 16:55:00,,0833.7,5.00,0.00,26.0,24.9,00.0,34.7,28.0,14.3,0000.3,0006.30,0010.63,0005.71
2022-10-17 16:56:00,,0833.6,4.99,0.00,26.0,25.0,00.0,34.8,28.0,14.5,0000.3,0006.24,0010.57,0005.67
2022-10-17 16:57:00,,0833.6,5.00,0.00,26.1,25.0,00.0,34.8,28.0,14.5,0000.0,0006.20,0010.63,0005.64
2022-10-17 16:58:00,,0833.7,5.01,0.00,26.1,25.0,00.0,34.8,28.0,14.6,0000.0,0006.21,0010.74,0005.62
2022-10-17 16:59:00,,0833.6,5.00,0.00,26.1,25.0,00.0,34.8,28.0,14.8,0000.0,0006.26,0011.75,0005.62
